231346 Weather Reports


time (UTC)temp
F
wind
direction
speed
knots
gust
knots
rain 1hr
in
rain 24hr
in
rain mn
in
humidity
%
barometer
mb
20260502123032 0 38 0.0 0.9 0.00 0.00 0.00 1017.1
20260502121531 0 38 0.0 1.7 0.00 0.00 0.00 1017.1
20260502114527 0 41 0.9 2.6 0.00 0.00 0.00 1017.3
20260502113027 0 47 0.0 1.7 0.00 0.00 0.00 1017.3
20260502111524 0 47 0.0 1.7 0.00 0.00 0.00 1017.0
20260502110023 0 317 0.0 0.0 0.00 0.00 0.00 1017.1
20260502104526 0 317 0.0 0.9 0.00 0.00 0.00 1017.6
20260502103018 0 13 0.9 3.5 0.00 0.00 0.00 1017.9
20260502101512 0 67 1.7 4.3 0.00 0.00 0.00 1017.6
20260502091504 0 75 0.9 4.3 0.00 0.00 0.00 1017.1
20260502090122 0 61 0.0 1.7 0.00 0.00 0.00 1017.1
20260502071532 0 68 0.0 4.3 0.00 0.00 0.00 1017.1
20260502070045 0 70 3.5 7.8 0.00 0.00 0.00 1017.0
20260502064525 0 90 1.7 5.2 0.00 0.00 0.00 1016.9
20260502063026 0 68 3.5 7.8 0.00 0.00 0.00 1017.0
20260502061517 0 61 1.7 4.3 0.00 0.00 0.00 1016.9
20260502060026 0 80 1.7 7.8 0.00 0.00 0.00 1016.9
20260502054508 0 73 2.6 7.8 0.00 0.00 0.00 1016.7
20260502053004 0 72 4.3 8.7 0.00 0.00 0.00 1016.8
20260502051603 0 74 4.3 7.8 0.00 0.00 0.00 1016.6
20260502050054 0 69 3.5 6.1 0.00 0.00 0.00 1016.8
20260502043105 0 77 3.5 8.7 0.00 0.00 0.00 1016.5
20260502041613 0 57 4.3 8.7 0.00 0.00 0.00 1016.3
20260502040054 0 63 2.6 8.7 0.00 0.00 0.00 1016.0
20260502033047 0 56 2.6 5.2 0.00 0.00 0.00 1015.7
20260502031546 0 21 1.7 6.1 0.00 0.00 0.00 1015.3
20260502030101 0 90 3.5 5.2 0.00 0.00 0.00 1015.0
20260502023107 0 26 2.6 6.1 0.00 0.00 0.00 1014.7
20260502021545 0 60 1.7 3.5 0.00 0.00 0.00 1014.5
20260502020044 0 60 0.9 7.8 0.00 0.00 0.00 1014.5
20260502013054 0 57 2.6 5.2 0.00 0.00 0.00 1014.3
20260502011603 0 94 4.3 7.8 0.00 0.00 0.00 1014.2
20260502010044 0 72 3.5 10.4 0.00 0.00 0.00 1014.2
20260502003042 0 38 0.0 7.0 0.00 0.00 0.00 1014.0
20260502001544 0 12 0.9 4.3 0.00 0.00 0.00 1013.9
20260502000053 0 32 2.6 7.0 0.00 0.00 0.00 1013.9
20260501233031 0 13 2.6 5.2 0.00 0.00 0.00 1014.0
20260501231528 0 45 0.9 4.3 0.00 0.00 0.00 1014.0
20260501230042 0 54 1.7 4.3 0.00 0.00 0.00 1014.2
20260501223019 0 60 0.0 3.5 0.00 0.00 0.00 1014.6
20260501221511 0 47 2.6 4.3 0.00 0.00 0.00 1014.7
20260501220006 0 21 0.0 2.6 0.00 0.00 0.00 1014.9
20260501213104 0 44 0.0 2.6 0.00 0.00 0.00 1015.2
20260501211554 0 65 0.9 2.6 0.00 0.00 0.00 1015.4
20260501210049 0 43 1.7 3.5 0.00 0.00 0.00 1015.6
20260501203043 0 56 3.5 5.2 0.00 0.00 0.00 1015.7
20260501201541 0 57 2.6 5.2 0.00 0.00 0.00 1015.8
20260501200033 0 45 2.6 4.3 0.00 0.00 0.00 1016.0
20260501193033 0 65 2.6 5.2 0.00 0.00 0.00 1016.3
20260501191524 0 61 4.3 6.1 0.00 0.00 0.00 1016.4
20260501190022 0 57 3.5 5.2 0.00 0.00 0.00 1016.6
20260501183011 0 55 2.6 4.3 0.00 0.00 0.00 1016.9
20260501181506 0 61 1.7 4.3 0.00 0.00 0.00 1016.9
20260501180002 0 51 2.6 4.3 0.00 0.00 0.00 1016.9
20260501173108 0 61 3.5 7.0 0.00 0.00 0.00 1017.1
20260501171604 0 71 5.2 8.7 0.00 0.00 0.00 1017.1
20260501170051 0 65 5.2 7.8 0.00 0.00 0.00 1017.1
20260501163043 0 39 2.6 5.2 0.00 0.00 0.00 1017.3
20260501161541 0 58 1.7 3.5 0.00 0.00 0.00 1017.5
20260501160036 0 62 0.9 5.2 0.00 0.00 0.00 1017.5
20260501153028 0 46 0.9 2.6 0.00 0.00 0.00 1017.5
20260501151523 0 5 0.0 1.7 0.00 0.00 0.00 1017.5
20260501150020 0 241 0.0 0.0 0.00 0.00 0.00 1017.6
20260501143010 0 241 0.0 0.0 0.00 0.00 0.00 1017.4